CZ-4C R/B - Orbit

View from above orbital plane
View from above orbital plane
View from above satellite
View from above satellite

Ground track
Ground track

The orbit data is extracted from the following two-line orbital elements,

1 32290U 07055B   13168.23556874  .00003116  00000-0  14240-3 0  6073
2 32290 097.6198 235.6249 0097014 237.9992 154.0279 15.17211153308861
Epoch (UTC): 17 June 2013 05:39:13
Eccentricity: 0.0097014
inclination: 97.6198°
perigee height: 447 km
apogee height: 581 km
right ascension of ascending node: 235.6249°
argument of perigee: 237.9992°
revolutions per day: 15.17211153
mean anomaly at epoch: 154.0279°
orbit number at epoch: 30886

The dashed part of the orbit path shows where the satellite is in the earth's shadow,  

Developed and maintained by Chris Peat, Heavens-Above GmbH. Please read the updated FAQ before sending e-mail. Imprint. DLR